CW3786 Weather Reports


Display with metric or nautical units.
time (UTC)temp
F
wind
direction
speed
MPH
gust
MPH
rain 1hr
in
rain 24hr
in
rain mn
in
humidity
%
barometer
mb
20260905113006 62 265 0.0 0.0 0.00 0.00 0.00 94 1005.1
20260905111543 62 265 0.0 0.0 0.00 0.00 0.00 94 1005.1
20260905110031 62 265 0.0 0.0 0.00 0.00 0.00 93 1005.2
20260905104540 62 265 0.0 0.0 0.00 0.00 0.00 93 1005.2
20260905103023 62 265 0.0 0.0 0.00 0.00 0.00 93 1005.3
20260905101521 62 265 0.0 0.0 0.00 0.00 0.00 93 1005.4
20260905100048 62 265 0.0 0.0 0.00 0.00 0.00 93 1005.4
20260905094531 62 265 0.0 0.0 0.00 0.00 0.00 92 1005.4
20260905093026 62 265 0.0 0.0 0.00 0.00 0.00 92 1005.4
20260905091511 62 265 0.0 0.0 0.00 0.00 0.00 92 1005.4
20260905090046 62 265 0.0 0.0 0.00 0.00 0.00 92 1005.4
20260905084522 62 265 0.0 0.0 0.00 0.00 0.00 92 1005.5
20260905083005 62 265 0.0 0.0 0.00 0.00 0.00 92 1005.7
20260905081601 62 265 0.0 0.0 0.00 0.00 0.00 91 1005.7
20260905080050 62 265 0.0 0.0 0.00 0.00 0.00 91 1005.8
20260905074526 62 265 0.0 0.0 0.00 0.00 0.00 90 1005.7
20260905073024 63 265 0.0 0.0 0.00 0.00 0.00 90 1005.6
20260905071534 63 265 0.0 0.0 0.00 0.00 0.00 89 1005.6
20260905070015 63 265 0.0 0.0 0.00 0.00 0.00 88 1005.4
20260905064556 64 265 0.0 0.0 0.00 0.00 0.00 88 1005.4
20260905063015 64 265 0.0 0.0 0.00 0.00 0.00 88 1005.4
20260905061610 64 265 0.0 0.0 0.00 0.00 0.00 88 1005.4
20260905060053 65 265 0.0 0.0 0.00 0.00 0.00 88 1005.4
20260905054531 65 265 0.0 0.0 0.00 0.00 0.00 87 1005.2
20260905053010 65 264 0.0 0.0 0.00 0.00 0.00 87 1005.4
20260905051539 66 273 0.0 0.0 0.00 0.00 0.00 86 1005.4
20260905050021 66 275 0.0 0.0 0.00 0.00 0.00 86 1005.2
20260905044557 66 253 0.0 0.0 0.00 0.00 0.00 86 1005.2
20260905043106 66 258 0.0 0.0 0.00 0.00 0.00 86 1005.3
20260905041519 66 251 0.0 0.0 0.00 0.00 0.00 86 1004.8
20260905040117 66 242 0.0 0.0 0.00 0.00 0.00 85 1004.8
20260905034541 66 272 0.0 0.0 0.00 0.00 0.00 84 1004.7
20260905033019 66 263 0.0 0.0 0.00 0.00 0.00 84 1004.4
20260905031559 66 247 0.0 0.0 0.00 0.00 0.00 84 1004.4
20260905031503 66 247 0.0 0.0 0.00 0.00 0.00 84 1004.3
20260905030049 66 259 1.0 0.0 0.00 0.00 0.00 83 1004.3
20260905024547 67 275 0.0 0.0 0.00 0.00 0.00 83 1004.3
20260905023043 67 268 1.0 0.0 0.00 0.00 0.00 82 1004.3
20260905021530 67 240 1.0 0.0 0.00 0.00 0.00 81 1004.3
20260905020006 68 262 1.0 0.0 0.00 0.00 0.00 80 1004.3
20260905014554 68 340 1.0 0.0 0.00 0.00 0.00 78 1004.3
20260905013049 69 225 1.0 0.0 0.00 0.00 0.00 76 1004.3
20260905011522 70 260 2.0 0.0 0.00 0.00 0.00 74 1004.5
20260905010050 71 281 0.0 0.0 0.00 0.00 0.00 73 1004.5
20260905004543 72 256 2.0 0.0 0.00 0.00 0.00 69 1004.6
20260905003040 74 274 1.0 0.0 0.00 0.00 0.00 66 1004.5
20260905001536 74 265 1.0 0.0 0.00 0.00 0.00 64 1004.7
20260905000037 75 270 2.0 0.0 0.00 0.00 0.00 64 1004.5
20260904234516 76 266 2.0 0.0 0.00 0.00 0.00 61 1004.4
20260904233012 77 279 3.0 0.0 0.00 0.00 0.00 59 1004.4
20260904231516 79 126 0.0 0.0 0.00 0.00 0.00 51 1004.6
20260904230013 82 82 0.0 0.0 0.00 0.00 0.00 40 1004.7
20260904224551 81 78 1.0 0.0 0.00 0.00 0.00 31 1004.7
20260904223041 80 132 0.0 0.0 0.00 0.00 0.00 36 1004.7
20260904221528 80 180 0.0 0.0 0.00 0.00 0.00 39 1004.8
20260904220036 80 180 0.0 0.0 0.00 0.00 0.00 41 1004.9
20260904214556 78 182 0.0 0.0 0.00 0.00 0.00 50 1004.9
20260904213040 80 181 0.0 0.0 0.00 0.00 0.00 45 1004.9
20260904211523 80 100 0.0 0.0 0.00 0.00 0.00 46 1005.1
20260904210058 80 104 1.0 0.0 0.00 0.00 0.00 48 1005.1
20260904204541 79 118 0.0 0.0 0.00 0.00 0.00 51 1005.1
20260904203030 78 175 0.0 0.0 0.00 0.00 0.00 55 1005.4
20260904201516 79 182 0.0 0.0 0.00 0.00 0.00 54 1005.5
20260904200048 80 195 0.0 0.0 0.00 0.00 0.00 51 1005.5
20260904194547 80 86 1.0 0.0 0.00 0.00 0.00 49 1005.6
20260904193034 79 68 2.0 0.0 0.00 0.00 0.00 51 1005.8
20260904191539 78 100 1.0 0.0 0.00 0.00 0.00 52 1006.0
20260904190037 78 110 2.0 0.0 0.00 0.00 0.00 54 1006.2
20260904184527 78 101 1.0 0.0 0.00 0.00 0.00 55 1006.4
20260904183056 77 90 4.0 0.0 0.00 0.00 0.00 58 1006.4
20260904181533 76 71 3.0 0.0 0.00 0.00 0.00 57 1006.3
20260904180023 76 74 3.0 0.0 0.00 0.00 0.00 59 1006.4
20260904174526 75 83 2.0 0.0 0.00 0.00 0.00 60 1006.4
20260904173030 74 86 0.0 0.0 0.00 0.00 0.00 63 1006.3
20260904171558 72 86 1.0 0.0 0.00 0.00 0.00 67 1006.3
20260904170045 69 98 1.0 0.0 0.00 0.00 0.00 76 1006.2
20260904164534 68 66 0.0 0.0 0.00 0.00 0.00 85 1006.0
20260904163012 67 65 1.0 0.0 0.00 0.00 0.00 92 1005.8
20260904161627 66 259 0.0 0.0 0.00 0.00 0.00 94 1005.8
20260904161501 66 259 0.0 0.0 0.00 0.00 0.00 94 1005.6
20260904160055 64 259 0.0 0.0 0.00 0.00 0.00 95 1005.6
20260904154545 64 259 0.0 0.0 0.00 0.00 0.00 95 1005.5
20260904153025 64 259 0.0 0.0 0.00 0.00 0.00 95 1005.6
20260904151557 63 259 0.0 0.0 0.00 0.00 0.00 95 1005.6
20260904150100 62 259 0.0 0.0 0.00 0.00 0.00 95 1005.5
20260904144542 62 259 0.0 0.0 0.00 0.00 0.00 95 1005.4
20260904143019 61 259 0.0 0.0 0.00 0.00 0.00 95 1005.0
20260904141529 61 259 0.0 0.0 0.00 0.00 0.00 94 1004.9
20260904140012 60 259 0.0 0.0 0.00 0.00 0.00 94 1004.9
20260904134547 60 259 0.0 0.0 0.00 0.00 0.00 94 1004.9
20260904133013 60 259 0.0 0.0 0.00 0.00 0.00 94 1004.8
20260904131551 60 259 0.0 0.0 0.00 0.00 0.00 94 1004.8
20260904130018 60 259 0.0 0.0 0.00 0.00 0.00 93 1004.6
20260904124602 60 259 0.0 0.0 0.00 0.00 0.00 93 1004.6
20260904123025 60 259 0.0 0.0 0.00 0.00 0.00 93 1004.5
20260904121504 60 259 0.0 0.0 0.00 0.00 0.00 93 1004.4
20260904120031 61 259 0.0 0.0 0.00 0.00 0.00 93 1004.4
20260904114525 61 259 0.0 0.0 0.00 0.00 0.00 93 1004.4